Regional Weather Roundup
Issued by NWS

Home | Current Version | Previous Version | Graphics & Text | Print | Product List | Glossary On
Versions: 1 2 3 4 5 6 7 8 9 10 11 12 13 14 15 16 17 18 19 20 21 22 23 24 25 26 27 28 29 30 31 32 33 34 35 36 37 38 39 40 41 42 43 44 45 46 47 48 49 50
000
ASUS43 KMKX 291620
RWRWI

WISCONSIN REGIONAL WEATHER ROUNDUP
NATIONAL WEATHER SERVICE MILWAUKEE/SULLIVAN WI
1100 AM CDT SUN MAR 29 2015

NOTE: "FAIR" INDICATES FEW OR NO CLOUDS BELOW 12,000 FEET WITH NO
SIGNIFICANT WEATHER AND/OR OBSTRUCTIONS TO VISIBILITY.

WIZ001-002-006>008-014>016-023>028-291700-
NORTHWEST WISCONSIN

CITY           SKY/WX    TMP DP  RH WIND       PRES   REMARKS
SUPERIOR ARPT  HVY RAIN  36  33  89 SW9       29.50R WCI  29
ASHLAND        CLOUDY    36  30  79 SW13      29.50F WCI  27
HAYWARD        LGT SNOW  33  30  88 S13       29.51F FOG     WCI  24
SIREN          CLOUDY    36  34  92 SW8       29.52S FOG     WCI  30
CUMBERLAND     CLOUDY    32  32 100 S12       29.52F FOG     WCI  23
RICE LAKE      CLOUDY    34  32  92 S10       29.55F WCI  26
CHETEK         LGT RAIN  33  32  94 S8        29.56F WCI  27
LADYSMITH      CLOUDY    33  31  92 S12G21    29.57F FOG     WCI  25
EAU CLAIRE     CLOUDY    36  33  89 S15G23    29.58F FOG     WCI  27
MENOMONIE      CLOUDY    38  36  92 S16       29.57F WCI  29
NEW RICHMOND   CLOUDY    38  36  94 SW14G20   29.54F WCI  30
OSCEOLA        CLOUDY    39  36  90 S10       29.56F WCI  32
$$

WIZ003>005-009-010-017-018-291700-
NORTH CENTRAL WISCONSIN

CITY           SKY/WX    TMP DP  RH WIND       PRES   REMARKS
MANITOWISH WTR CLOUDY    31  29  93 S15       29.54F WCI  20
ARBOR VITAE    CLOUDY    32  29  89 S15G23    29.55F WCI  21
WOODRUFF       CLOUDY    32  29  89 S15G23    29.55F WCI  21
RHINELANDER    CLOUDY    30  27  88 SW18G26   29.58F FOG     WCI  18
EAGLE RIVER    MIX PCPN  30  26  85 SW12G18   29.56F WCI  20
LAND O LAKES   CLOUDY    31  27  86 SW12G23   29.55F WCI  22
PHILLIPS       CLOUDY    32  29  90 S15G24    29.53F WCI  21
TOMAHAWK       CLOUDY    30  28  90 S6        29.60F FOG     WCI  24
MEDFORD        CLOUDY    31  29  92 S12G17    29.59F WCI  22
MERRILL        CLOUDY    31  29  94 S10G16    29.63F FOG     WCI  22
$$

WIZ029-030-035-036-043>047-291700-
CENTRAL WISCONSIN

CITY           SKY/WX    TMP DP  RH WIND       PRES   REMARKS
WAUSAU         MIX PCPN  31  29  92 S18G28    29.62F FOG     WCI  19
MOSINEE        FRZ DRZL  30  30 100 S14G22    29.65F WCI  20
MARSHFIELD     CLOUDY    33  29  85 S15       29.65F WCI  23
STEVENS POINT  MIX PCPN  30  28  93 S12G21    29.69F WCI  21
WAUPACA        CLOUDY    34  29  83 S14       29.74S HAZE    WCI  24
WAUTOMA        CLOUDY    33  31  93 S12       29.75F WCI  24
WISC RAPIDS    CLOUDY    33  28  81 S17       29.70F WCI  22
CAMP DOUGLAS   CLOUDY    34  34 100 S14G23    29.70F WCI  24
$$

WIZ011>013-019>022-031-037>040-048>050-291700-
NORTHEAST WISCONSIN

CITY           SKY/WX    TMP DP  RH WIND       PRES   REMARKS
ANTIGO         CLOUDY    29  28  96 S16       29.64F FOG     WCI  17
SHAWANO        DRIZZLE   33  29  85 S8G22     29.72F WCI  26
OCONTO         CLOUDY    33  28  82 S13G20    29.72F WCI  24
STURGEON BAY   CLOUDY    32  23  69 S20G32    29.75F WCI  20
GREEN BAY      MIX PCPN  35  28  75 S23G29    29.72F WCI  23
MANITOWOC      MIX PCPN  33  28  81 S20       29.82F WCI  21
APPLETON       LGT RAIN  32  27  80 S17G24    29.73F WCI  21
CLINTONVILLE   MIX PCPN  32  28  86 SW13G23   29.72F WCI  22
OSHKOSH        MIX PCPN  32  27  81 S31G39    29.73F WCI  17
$$

WIZ032>034-041-042-053>061-291700-
SOUTHWEST WISCONSIN

CITY           SKY/WX    TMP DP  RH WIND       PRES   REMARKS
LA CROSSE      CLOUDY    37  32  82 S22G29    29.69F WCI  26
SPARTA         CLOUDY    35  31  85 SW10G20   29.72F WCI  28
VIROQUA        CLOUDY    33  33 100 SW14G20   29.73F WCI  23
BOSCOBEL       CLOUDY    36  30  79 SW16G26   29.80F WCI  26
PRAIRIE DU CHI CLOUDY    36  30  78 S9G20     29.79F WCI  29
PLATTEVILLE    CLOUDY    33  31  92 S10       29.82F WCI  25
$$

WIZ056-057-062-063-064-067-068-291700-
SOUTH CENTRAL WISCONSIN

CITY           SKY/WX    TMP DP  RH WIND       PRES   REMARKS
REEDSBURG      CLOUDY    32  30  92 S15G21    29.76F WCI  22
BARABOO/DELLS  CLOUDY    32  29  90 SW12G21   29.75F WCI  23
LONE ROCK      CLOUDY    34  29  82 SW14G23   29.80F WCI  25
MINERAL POINT  CLOUDY    34  32  93 S14       29.80F WCI  24
MADISON        DRIZZLE   33  29  85 S17G30    29.82F FOG     WCI  22
MIDDLETON      CLOUDY    34  30  86 SW12G18   29.81R WCI  25
WATERTOWN      MIX PCPN  32  30  92 S14G24    29.83F WCI  22
MONROE         CLOUDY    32  30  93 S26G38    29.83F WCI  18
JANESVILLE     CLOUDY    34  28  80 S23G29    29.89F WCI  22
$$

WIZ051-052-058>065-066-070>072-291700-
SOUTHEAST WISCONSIN

CITY           SKY/WX    TMP DP  RH WIND       PRES   REMARKS
MILWAUKEE      FLURRIES  36  23  59 S16G29    29.88F WCI  26
WAUKESHA       LGT RAIN  34  25  69 S17G35    29.86F VSB 1   WCI  23
MILWAUKEE/TIMM LGT RAIN  36  19  51 S17G28    29.90F WCI  25
RACINE         LGT RAIN  38  20  48 S23G33    29.93F WCI  27
BURLINGTON     LGT SNOW  32  26  77 S15G26    29.89F WCI  22
KENOSHA        LGT RAIN  37  22  54 S24G31    29.92F WCI  26
FOND DU LAC    LGT SNOW  33  27  78 S28G39    29.76F WCI  20
SHEBOYGAN      LGT RAIN  34  25  69 S21G28    29.83F WCI  22
WEST BEND      LGT SNOW  32  27  80 S18G25    29.83F WCI  20
JUNEAU         MIX PCPN  32  28  85 S17       29.82F WCI  21
$$

LSZ147-162-291700-
LAKE SUPERIOR

STATION/POSITION TIME  TEMP    WIND        PRES    WAVE
                       AIR SEA DIR/SP/G            HT/PER
                 (UTC) (F)     (DEG/KT/KT) (MB)    (FT/S)
DEVILS ISLAND    1600   35     230/ 11/ 13  999.1F
PORT WING        1500   37     200/ 12/ 18  999.3F
SAXON HARBOR     1500   37     200/ 12/ 22 1000.0F
$$

LMZ867-665-643>646-291700-
LAKE MICHIGAN

STATION/POSITION TIME  TEMP    WIND        PRES    WAVE
                       AIR SEA DIR/SP/G            HT/PER
                 (UTC) (F)     (DEG/KT/KT) (MB)    (FT/S)
NORTHPORT PIER   1520   34     160/ 12     1007.8F
SISTER BAY       1517   36     180/ 30/ 43   N/A
KEWAUNEE LAKESHO 1600   34     190/ 29/ 38 1008.6F
SHEBOYGAN LAKESH 1600   35     180/ 36/ 41 1010.8F
PORT WASHINGTON  1521   38     190/ 15     1012.9F
MILWAUKEE LAKESH 1600   37     190/ 19/ 23   N/A
KENOSHA   LAKESH 1600   38     190/ 15/ 23 1013.2F
$$

TC  - TEMPERATURE IN CELSIUS
VSB - VISIBILITY IN STATUTE MILES
WCI - WIND CHILL INDEX
HX  - HEAT INDEX



USA.gov is the U.S. government's official web portal to all federal, state and local government web resources and services.